N141DA EDDV-EDXW

Flight info

Callsign N141DA
Flight time 0h 51m
Altitude 16000
Route NIE2Y/09L NIE N850 ESTAD/N0191F180 N850 ELSOB/N0190F170 Y348 OMWEG M105 EXNEL DCT OLDIP
Aircraft BT36/L-BDFGLORY/S

Departure

Time 2026-05-07 20:11
Airport Hannover Airport (EDDV)

Arrival

Time 2026-05-07 21:03
Airport Westerland Sylt Airport (EDXW)
Time Latitude Longitude Altitude Speed Heading
2026-05-07 19:49 52.46331 9.69340 176 ft 0 kts 344°
2026-05-07 20:08 52.46329 9.69296 176 ft 11 kts 273°
2026-05-07 20:08 52.46341 9.69148 177 ft 22 kts 248°
2026-05-07 20:09 52.46269 9.68854 174 ft 34 kts 247°
2026-05-07 20:09 52.46299 9.68591 175 ft 27 kts 322°
2026-05-07 20:09 52.46455 9.68396 176 ft 28 kts 323°
2026-05-07 20:10 52.46663 9.68133 171 ft 9 kts 323°
2026-05-07 20:10 52.46735 9.68023 172 ft 16 kts
2026-05-07 20:10 52.46749 9.68077 172 ft 0 kts 92°
2026-05-07 20:11 52.46738 9.68446 173 ft 75 kts 93°
2026-05-07 20:11 52.46730 9.69572 313 ft 111 kts 89°
2026-05-07 20:11 52.46771 9.70856 676 ft 115 kts 88°
2026-05-07 20:11 52.46801 9.72221 1027 ft 121 kts 90°
2026-05-07 20:12 52.46762 9.73595 1402 ft 122 kts 97°
2026-05-07 20:12 52.46726 9.75004 1695 ft 125 kts 76°
2026-05-07 20:12 52.47241 9.76116 2061 ft 127 kts 32°
2026-05-07 20:12 52.48114 9.76321 2461 ft 128 kts
2026-05-07 20:13 52.48959 9.76162 2972 ft 116 kts
2026-05-07 20:13 52.49728 9.76058 3481 ft 105 kts
2026-05-07 20:13 52.50423 9.76013 3980 ft 95 kts
2026-05-07 20:13 52.51046 9.76011 4483 ft 84 kts 10°
2026-05-07 20:14 52.51596 9.75746 4939 ft 86 kts 331°
2026-05-07 20:14 52.51990 9.74988 5322 ft 88 kts 307°
2026-05-07 20:14 52.52270 9.74085 5651 ft 93 kts 301°
2026-05-07 20:14 52.52586 9.73072 5938 ft 107 kts 301°
2026-05-07 20:15 52.52932 9.71912 6226 ft 119 kts 298°
2026-05-07 20:15 52.53293 9.70614 6517 ft 130 kts 297°
2026-05-07 20:15 52.53678 9.69216 6779 ft 138 kts 296°
2026-05-07 20:15 52.54082 9.67738 7036 ft 145 kts 296°
2026-05-07 20:16 52.54499 9.66218 7281 ft 150 kts 296°
2026-05-07 20:16 52.54936 9.64640 7531 ft 153 kts 296°
2026-05-07 20:16 52.55381 9.63034 7775 ft 156 kts 296°
2026-05-07 20:16 52.55845 9.61363 8025 ft 165 kts 295°
2026-05-07 20:17 52.56331 9.59616 8278 ft 171 kts 296°
2026-05-07 20:17 52.56833 9.57826 8531 ft 174 kts 295°
2026-05-07 20:17 52.57344 9.56003 8781 ft 177 kts 295°
2026-05-07 20:17 52.57859 9.54160 9015 ft 178 kts 295°
2026-05-07 20:18 52.58378 9.52306 9279 ft 179 kts 295°
2026-05-07 20:18 52.58896 9.50443 9530 ft 179 kts 295°
2026-05-07 20:18 52.59408 9.48604 9906 ft 174 kts 295°
2026-05-07 20:18 52.59903 9.46823 10281 ft 169 kts 295°
2026-05-07 20:19 52.60386 9.45082 10644 ft 166 kts 294°
2026-05-07 20:19 52.60863 9.43368 11014 ft 164 kts 294°
2026-05-07 20:19 52.61336 9.41669 11397 ft 162 kts 294°
2026-05-07 20:19 52.61805 9.39984 11772 ft 162 kts 295°
2026-05-07 20:20 52.62464 9.38511 12151 ft 161 kts 320°
2026-05-07 20:20 52.63452 9.37682 12541 ft 161 kts 345°
2026-05-07 20:20 52.64563 9.37635 12936 ft 161 kts
2026-05-07 20:20 52.65675 9.37899 13344 ft 161 kts
2026-05-07 20:21 52.66791 9.38116 13745 ft 162 kts
2026-05-07 20:21 52.67907 9.38113 14032 ft 168 kts 351°
2026-05-07 20:21 52.69092 9.37576 14072 ft 185 kts 343°
2026-05-07 20:21 52.70381 9.37056 14091 ft 196 kts 346°
2026-05-07 20:22 52.71721 9.36563 14095 ft 198 kts 347°
2026-05-07 20:22 52.73066 9.36057 14102 ft 199 kts 346°
2026-05-07 20:22 52.74417 9.35531 14094 ft 201 kts 346°
2026-05-07 20:22 52.75770 9.34998 14098 ft 200 kts 346°
2026-05-07 20:23 52.77124 9.34458 14096 ft 201 kts 346°
2026-05-07 20:23 52.78480 9.33919 14096 ft 201 kts 346°
2026-05-07 20:23 52.79381 9.33559 14096 ft 201 kts 346°
2026-05-07 20:23 52.80741 9.33017 14097 ft 201 kts 346°
2026-05-07 20:24 52.82097 9.32476 14100 ft 201 kts 346°
2026-05-07 20:24 52.83457 9.31933 14097 ft 201 kts 346°
2026-05-07 20:24 52.84819 9.31390 14096 ft 201 kts 346°
2026-05-07 20:24 52.86173 9.30848 14096 ft 201 kts 346°
2026-05-07 20:25 52.87531 9.30307 14103 ft 201 kts 346°
2026-05-07 20:25 52.88888 9.29765 14100 ft 201 kts 346°
2026-05-07 20:25 52.90247 9.29222 14102 ft 201 kts 346°
2026-05-07 20:25 52.91606 9.28674 14099 ft 201 kts 345°
2026-05-07 20:26 52.92946 9.28134 14103 ft 201 kts 346°
2026-05-07 20:26 52.94309 9.27615 14103 ft 201 kts 346°
2026-05-07 20:26 52.95670 9.27089 14108 ft 201 kts 346°
2026-05-07 20:26 52.97028 9.26542 14106 ft 201 kts 346°
2026-05-07 20:27 52.98388 9.25985 14106 ft 201 kts 345°
2026-05-07 20:27 52.99747 9.25426 14110 ft 201 kts 345°
2026-05-07 20:27 53.01102 9.24870 14107 ft 201 kts 345°
2026-05-07 20:27 53.02459 9.24317 14109 ft 201 kts 345°
2026-05-07 20:28 53.03819 9.23766 14111 ft 201 kts 345°
2026-05-07 20:28 53.05179 9.23214 14112 ft 201 kts 345°
2026-05-07 20:28 53.06538 9.22665 14105 ft 201 kts 345°
2026-05-07 20:28 53.07894 9.22118 14105 ft 201 kts 345°
2026-05-07 20:29 53.09253 9.21568 14106 ft 201 kts 345°
2026-05-07 20:29 53.10608 9.21020 14108 ft 201 kts 345°
2026-05-07 20:29 53.11966 9.20470 14110 ft 201 kts 345°
2026-05-07 20:29 53.13325 9.19920 14111 ft 201 kts 345°
2026-05-07 20:30 53.14684 9.19370 14109 ft 201 kts 345°
2026-05-07 20:30 53.16045 9.18819 14111 ft 201 kts 345°
2026-05-07 20:30 53.17386 9.18275 14107 ft 201 kts 345°
2026-05-07 20:30 53.18745 9.17724 14108 ft 201 kts 345°
2026-05-07 20:31 53.20109 9.17169 14111 ft 202 kts 345°
2026-05-07 20:31 53.21479 9.16612 14107 ft 203 kts 345°
2026-05-07 20:31 53.22846 9.16058 14105 ft 202 kts 345°
2026-05-07 20:31 53.24208 9.15504 14106 ft 202 kts 345°
2026-05-07 20:32 53.25580 9.14943 14107 ft 203 kts 345°
2026-05-07 20:32 53.26955 9.14382 14107 ft 203 kts 345°
2026-05-07 20:32 53.28332 9.13821 14107 ft 204 kts 345°
2026-05-07 20:32 53.29713 9.13259 14106 ft 204 kts 345°
2026-05-07 20:33 53.31094 9.12696 14104 ft 204 kts 345°
2026-05-07 20:33 53.32476 9.12131 14106 ft 205 kts 346°
2026-05-07 20:33 53.33860 9.11566 14105 ft 205 kts 345°
2026-05-07 20:33 53.35248 9.10999 14105 ft 205 kts 345°
2026-05-07 20:34 53.36616 9.10439 14101 ft 205 kts 345°
2026-05-07 20:34 53.38001 9.09872 14106 ft 205 kts 345°
2026-05-07 20:34 53.39386 9.09305 14102 ft 205 kts 345°
2026-05-07 20:34 53.40772 9.08737 14103 ft 205 kts 345°
2026-05-07 20:35 53.42159 9.08168 14105 ft 205 kts 345°
2026-05-07 20:35 53.43544 9.07599 14105 ft 205 kts 345°
2026-05-07 20:35 53.44927 9.07031 14105 ft 205 kts 345°
2026-05-07 20:35 53.46312 9.06461 14104 ft 205 kts 345°
2026-05-07 20:36 53.47697 9.05892 14104 ft 205 kts 345°
2026-05-07 20:36 53.49081 9.05321 14105 ft 205 kts 345°
2026-05-07 20:36 53.50466 9.04750 14107 ft 205 kts 345°
2026-05-07 20:36 53.51850 9.04180 14108 ft 205 kts 345°
2026-05-07 20:37 53.53233 9.03610 14108 ft 205 kts 345°
2026-05-07 20:37 53.54615 9.03040 14107 ft 204 kts 345°
2026-05-07 20:37 53.55997 9.02470 14107 ft 205 kts 345°
2026-05-07 20:37 53.57380 9.01898 14109 ft 205 kts 345°
2026-05-07 20:38 53.58762 9.01327 14113 ft 205 kts 345°
2026-05-07 20:38 53.60145 9.00755 14112 ft 205 kts 345°
2026-05-07 20:38 53.61526 9.00182 14115 ft 205 kts 345°
2026-05-07 20:38 53.62909 8.99610 14112 ft 205 kts 345°
2026-05-07 20:39 53.64279 8.99042 14112 ft 205 kts 345°
2026-05-07 20:39 53.65663 8.98467 14112 ft 205 kts 345°
2026-05-07 20:39 53.67047 8.97893 14115 ft 205 kts 345°
2026-05-07 20:39 53.68430 8.97318 14114 ft 205 kts 345°
2026-05-07 20:40 53.69815 8.96742 14116 ft 205 kts 345°
2026-05-07 20:40 53.71197 8.96166 14114 ft 205 kts 345°
2026-05-07 20:40 53.72583 8.95590 14117 ft 205 kts 345°
2026-05-07 20:40 53.73967 8.95014 14118 ft 205 kts 345°
2026-05-07 20:41 53.75353 8.94435 14119 ft 205 kts 345°
2026-05-07 20:41 53.76739 8.93857 14120 ft 205 kts 345°
2026-05-07 20:41 53.78121 8.93281 14119 ft 205 kts 345°
2026-05-07 20:41 53.79488 8.92711 14120 ft 205 kts 345°
2026-05-07 20:42 53.80871 8.92132 14120 ft 205 kts 345°
2026-05-07 20:42 53.82274 8.91547 14118 ft 205 kts 345°
2026-05-07 20:42 53.83642 8.90976 14117 ft 205 kts 345°
2026-05-07 20:42 53.85028 8.90395 14119 ft 205 kts 345°
2026-05-07 20:43 53.86411 8.89813 14113 ft 205 kts 345°
2026-05-07 20:43 53.87797 8.89231 14115 ft 205 kts 345°
2026-05-07 20:43 53.89185 8.88649 14117 ft 205 kts 345°
2026-05-07 20:43 53.90573 8.88067 14117 ft 205 kts 345°
2026-05-07 20:44 53.91958 8.87485 14114 ft 205 kts 345°
2026-05-07 20:44 53.93347 8.86900 14116 ft 205 kts 345°
2026-05-07 20:44 53.94734 8.86316 14118 ft 205 kts 345°
2026-05-07 20:44 53.96123 8.85731 14118 ft 205 kts 345°
2026-05-07 20:45 53.97511 8.85146 14114 ft 205 kts 345°
2026-05-07 20:45 53.98899 8.84559 14117 ft 206 kts 345°
2026-05-07 20:45 54.00269 8.83981 14116 ft 205 kts 345°
2026-05-07 20:45 54.01655 8.83396 14117 ft 205 kts 345°
2026-05-07 20:46 54.03039 8.82812 14116 ft 205 kts 345°
2026-05-07 20:46 54.04422 8.82227 14120 ft 205 kts 345°
2026-05-07 20:46 54.05804 8.81641 14114 ft 205 kts 345°
2026-05-07 20:46 54.07189 8.81054 14117 ft 205 kts 345°
2026-05-07 20:47 54.08573 8.80468 14115 ft 205 kts 345°
2026-05-07 20:47 54.09956 8.79882 14118 ft 205 kts 345°
2026-05-07 20:47 54.11336 8.79296 14115 ft 205 kts 345°
2026-05-07 20:47 54.12720 8.78709 14115 ft 205 kts 345°
2026-05-07 20:48 54.14108 8.78119 14118 ft 205 kts 345°
2026-05-07 20:48 54.15494 8.77530 14117 ft 205 kts 345°
2026-05-07 20:48 54.16881 8.76939 14117 ft 206 kts 345°
2026-05-07 20:48 54.18269 8.76347 14118 ft 206 kts 345°
2026-05-07 20:49 54.19660 8.75755 14120 ft 206 kts 345°
2026-05-07 20:49 54.21049 8.75163 14116 ft 206 kts 345°
2026-05-07 20:49 54.22420 8.74579 14118 ft 206 kts 345°
2026-05-07 20:49 54.23853 8.73964 13811 ft 219 kts 345°
2026-05-07 20:50 54.25353 8.73327 13435 ft 224 kts 345°
2026-05-07 20:50 54.26874 8.72678 13067 ft 226 kts 345°
2026-05-07 20:50 54.28404 8.72021 12694 ft 227 kts 345°
2026-05-07 20:50 54.29935 8.71360 12334 ft 227 kts 345°
2026-05-07 20:51 54.31463 8.70700 11970 ft 226 kts 345°
2026-05-07 20:51 54.32987 8.70041 11610 ft 226 kts 346°
2026-05-07 20:51 54.34506 8.69385 11253 ft 225 kts 346°
2026-05-07 20:51 54.36020 8.68732 10905 ft 224 kts 346°
2026-05-07 20:52 54.37528 8.68082 10559 ft 223 kts 346°
2026-05-07 20:52 54.39030 8.67434 10208 ft 222 kts 346°
2026-05-07 20:52 54.40525 8.66790 9858 ft 221 kts 346°
2026-05-07 20:52 54.42014 8.66147 9474 ft 220 kts 346°
2026-05-07 20:53 54.43493 8.65508 9089 ft 219 kts 346°
2026-05-07 20:53 54.44967 8.64890 8781 ft 217 kts 347°
2026-05-07 20:53 54.46425 8.64276 8464 ft 215 kts 347°
2026-05-07 20:53 54.47876 8.63654 8153 ft 214 kts 346°
2026-05-07 20:54 54.49319 8.63028 7844 ft 213 kts 346°
2026-05-07 20:54 54.50754 8.62405 7537 ft 213 kts 347°
2026-05-07 20:54 54.52189 8.61783 7230 ft 212 kts 347°
2026-05-07 20:54 54.53600 8.61172 6935 ft 212 kts 347°
2026-05-07 20:55 54.55029 8.60551 6635 ft 211 kts 347°
2026-05-07 20:55 54.56453 8.59932 6323 ft 211 kts 347°
2026-05-07 20:55 54.57874 8.59315 6008 ft 210 kts 347°
2026-05-07 20:55 54.59292 8.58699 5699 ft 210 kts 347°
2026-05-07 20:56 54.60707 8.58084 5393 ft 210 kts 347°
2026-05-07 20:56 54.62119 8.57468 5113 ft 208 kts 347°
2026-05-07 20:56 54.63517 8.56859 4858 ft 206 kts 347°
2026-05-07 20:56 54.64902 8.56255 4587 ft 205 kts 347°
2026-05-07 20:57 54.66282 8.55654 4325 ft 204 kts 347°
2026-05-07 20:57 54.67659 8.55053 4064 ft 204 kts 347°
2026-05-07 20:57 54.69035 8.54451 3807 ft 204 kts 347°
2026-05-07 20:57 54.70407 8.53851 3558 ft 203 kts 347°
2026-05-07 20:58 54.71779 8.53249 3301 ft 203 kts 347°
2026-05-07 20:58 54.73146 8.52647 3088 ft 201 kts 345°
2026-05-07 20:58 54.74414 8.51753 3022 ft 193 kts 342°
2026-05-07 20:58 54.75704 8.51281 2993 ft 187 kts 351°
2026-05-07 20:59 54.76972 8.50883 2982 ft 183 kts 350°
2026-05-07 20:59 54.78120 8.50026 2976 ft 182 kts 333°
2026-05-07 20:59 54.79249 8.48969 2807 ft 190 kts 330°
2026-05-07 20:59 54.80364 8.47666 2545 ft 197 kts 323°
2026-05-07 21:00 54.81460 8.46221 2268 ft 198 kts 323°
2026-05-07 21:00 54.82561 8.44837 1997 ft 191 kts 326°
2026-05-07 21:00 54.83634 8.43546 1731 ft 185 kts 326°
2026-05-07 21:00 54.84671 8.42288 1473 ft 180 kts 326°
2026-05-07 21:01 54.85679 8.41037 1221 ft 176 kts 326°
2026-05-07 21:01 54.86644 8.39829 981 ft 165 kts 326°
2026-05-07 21:01 54.87532 8.38729 736 ft 146 kts 327°
2026-05-07 21:01 54.88251 8.37834 526 ft 112 kts 327°
2026-05-07 21:02 54.88824 8.37113 362 ft 98 kts 327°
2026-05-07 21:02 54.89380 8.36434 266 ft 101 kts 328°
2026-05-07 21:02 54.89946 8.35739 195 ft 100 kts 328°
2026-05-07 21:02 54.90477 8.35085 53 ft 85 kts 328°
2026-05-07 21:03 54.90906 8.34570 36 ft 61 kts 324°
2026-05-07 21:03 54.91201 8.34209 37 ft 44 kts 326°
2026-05-07 21:03 54.91275 8.33921 34 ft 25 kts 236°
2026-05-07 21:03 54.91182 8.33668 33 ft 24 kts 243°
2026-05-07 21:04 54.91102 8.33412 32 ft 23 kts 240°
2026-05-07 21:04 54.91032 8.33168 32 ft 22 kts 244°
2026-05-07 21:04 54.91045 8.32937 33 ft 21 kts 312°
2026-05-07 21:04 54.91136 8.32754 33 ft 20 kts 311°
2026-05-07 21:05 54.91230 8.32591 33 ft 19 kts 328°
2026-05-07 21:05 54.91250 8.32520 33 ft 0 kts 234°